Simultaneous Nadir Overpasses (SNOs) Predictions

Prediction of SNOs between LANDSAT-8 and METOP-A Satellite Orbit:

Table of predicted SNOs for the next 14.0 days since TLE Epoch: 3/13/2021
Index Date (LANDSAT-8) Time (LANDSAT-8) Lat,Lon (LANDSAT-8) SZA (LANDSAT-8 ) Date (METOP-A) Time (METOP-A) Lat,Lon (METOP-A) SZA (METOP-A ) Distance(km) Time Diff (sec)
1 03/13/2021 08:39:03 -81.43, -84.92 93.59 03/13/2021 08:38:56 -81.41, -84.95 93.60 1.39 7
2 03/13/2021 09:28:30 81.41, 82.48 86.37 03/13/2021 09:29:37 81.41, 82.43 86.39 0.86 67
3 03/16/2021 03:23:49 81.42, 173.78 85.33 03/16/2021 03:22:37 81.42, 173.79 85.30 0.23 72
4 03/16/2021 04:13:16 -81.42, -18.69 94.70 03/16/2021 04:13:17 -81.42, -18.69 94.70 0.07 1
5 03/16/2021 05:02:40 81.46, 149.85 85.41 03/16/2021 05:03:46 81.26, 153.31 85.67 61.82 66
6 03/18/2021 22:58:02 81.43,-119.67 84.26 03/18/2021 22:56:58 81.41,-119.59 84.23 1.86 64
7 03/18/2021 23:47:29 -81.42, 47.90 95.77 03/18/2021 23:47:38 -81.41, 47.95 95.77 1.81 9
8 03/21/2021 18:32:16 81.41, -53.54 83.13 03/21/2021 18:31:20 81.42, -53.39 83.13 2.61 56
9 03/21/2021 19:21:43 -81.41, 114.06 96.89 03/21/2021 19:22:00 -81.41, 114.17 96.87 1.94 17
10 03/24/2021 14:06:28 81.41, 12.94 82.05 03/24/2021 14:05:41 81.42, 12.79 82.02 2.65 47



Historial Predications of SNOs between LANDSAT-8 and METOP-A
